BEIDOU 20 (C18)

Last updated on Mon Feb 13 2023 00:03:21 GMT+0000 (Coordinated Universal Time)

1 40938U 15053A 23043.59082196 -.00000092 00000+0 00000+0 0 9990 2 40938 51.1251 273.1037 0043169 193.2244 344.5663 1.00284018 27118

Satellite not in orbit

BEIDOU 20 (C18)